Time,TemperatureF,DewpointF,PressureIn,WindDirection,WindDirectionDegrees,WindSpeedMPH,WindSpeedGustMPH,Humidity,HourlyPrecipIn,Conditions,Clouds,dailyrainin,SoftwareType,DateUTC
2013-02-26 00:00:00,28.8,17.8,29.80,SSW,198,0.0,0.0,63,0.00,CLR,CLR,0.00,WeatherDisplay:10.34,2013-02-26 07:00:00,
2013-02-26 00:05:00,28.8,17.8,29.81,NNW,328,5.0,5.0,63,0.00,CLR,CLR,0.00,WeatherDisplay:10.34,2013-02-26 07:05:00,
2013-02-26 00:10:00,28.8,17.4,29.81,NNE,21,4.0,4.0,62,0.00,CLR,CLR,0.00,WeatherDisplay:10.34,2013-02-26 07:10:00,
2013-02-26 00:15:00,28.8,17.4,29.81,NNE,21,0.0,0.0,62,0.00,CLR,CLR,0.00,WeatherDisplay:10.34,2013-02-26 07:15:00,
2013-02-26 00:20:00,28.8,17.4,29.81,NNW,334,3.0,0.0,62,0.00,CLR,CLR,0.00,WeatherDisplay:10.34,2013-02-26 07:20:00,
2013-02-26 00:25:00,28.8,17.4,29.81,NNW,333,2.0,2.0,62,0.00,CLR,CLR,0.00,WeatherDisplay:10.34,2013-02-26 07:25:00,
2013-02-26 00:30:00,28.8,17.4,29.81,NNW,333,1.0,0.0,62,0.00,CLR,CLR,0.00,WeatherDisplay:10.34,2013-02-26 07:30:00,
2013-02-26 00:35:00,28.9,17.5,29.82,WNW,285,6.0,8.0,62,0.00,CLR,CLR,0.00,WeatherDisplay:10.34,2013-02-26 07:35:00,
2013-02-26 00:40:00,29.3,19.0,29.82,West,278,0.0,0.0,65,0.00,CLR,CLR,0.00,WeatherDisplay:10.34,2013-02-26 07:40:00,
2013-02-26 00:45:00,29.3,19.0,29.82,West,278,0.0,1.0,65,0.00,CLR,CLR,0.00,WeatherDisplay:10.34,2013-02-26 07:45:00,
2013-02-26 00:50:00,29.4,19.1,29.82,NW,310,0.0,0.0,65,0.00,CLR,CLR,0.00,WeatherDisplay:10.34,2013-02-26 07:50:00,
2013-02-26 00:55:00,29.4,19.1,29.82,NW,310,0.0,1.0,65,0.00,CLR,CLR,0.00,WeatherDisplay:10.34,2013-02-26 07:55:00,
2013-02-26 01:00:00,29.4,18.7,29.82,NW,310,0.0,0.0,64,0.00,CLR,CLR,0.00,WeatherDisplay:10.34,2013-02-26 08:00:00,
2013-02-26 01:05:00,29.4,18.7,29.82,NW,310,0.0,0.0,64,0.00,CLR,CLR,0.00,WeatherDisplay:10.34,2013-02-26 08:05:00,
2013-02-26 01:10:00,29.4,19.1,29.82,NW,310,0.0,0.0,65,0.00,CLR,CLR,0.00,WeatherDisplay:10.34,2013-02-26 08:10:00,
2013-02-26 01:15:00,29.3,19.0,29.82,NW,309,0.0,1.0,65,0.00,CLR,CLR,0.00,WeatherDisplay:10.34,2013-02-26 08:15:00,
2013-02-26 01:20:00,29.3,19.0,29.82,NW,310,0.0,0.0,65,0.00,CLR,CLR,0.00,WeatherDisplay:10.34,2013-02-26 08:20:00,
2013-02-26 01:25:00,29.2,18.9,29.82,NW,310,0.0,1.0,65,0.00,CLR,CLR,0.00,WeatherDisplay:10.34,2013-02-26 08:25:00,
2013-02-26 01:30:00,29.1,18.8,29.82,NW,309,0.0,0.0,65,0.00,CLR,CLR,0.00,WeatherDisplay:10.34,2013-02-26 08:30:00,
2013-02-26 01:35:00,29.0,19.1,29.81,NW,310,0.0,1.0,66,0.00,CLR,CLR,0.00,WeatherDisplay:10.34,2013-02-26 08:35:00,
2013-02-26 01:40:00,28.8,18.9,29.81,NW,310,0.0,0.0,66,0.00,CLR,CLR,0.00,WeatherDisplay:10.34,2013-02-26 08:40:00,
2013-02-26 01:45:00,28.7,18.4,29.81,NW,309,0.0,1.0,65,0.00,CLR,CLR,0.00,WeatherDisplay:10.34,2013-02-26 08:45:00,
2013-02-26 01:50:00,28.4,17.8,29.81,SSE,148,3.0,3.0,64,0.00,CLR,CLR,0.00,WeatherDisplay:10.34,2013-02-26 08:50:00,
2013-02-26 01:55:00,28.1,17.8,29.81,SSE,148,1.0,2.0,65,0.00,CLR,CLR,0.00,WeatherDisplay:10.34,2013-02-26 08:55:00,
2013-02-26 02:00:00,27.8,17.6,29.81,SSW,196,6.0,6.0,65,0.00,CLR,CLR,0.00,WeatherDisplay:10.34,2013-02-26 09:00:00,
2013-02-26 02:05:00,27.5,18.0,29.81,SSW,203,8.0,9.0,67,0.00,CLR,CLR,0.00,WeatherDisplay:10.34,2013-02-26 09:05:00,
2013-02-26 02:10:00,27.8,18.3,29.81,WSW,238,5.0,0.0,67,0.00,CLR,CLR,0.00,WeatherDisplay:10.34,2013-02-26 09:10:00,
2013-02-26 02:15:00,28.0,18.1,29.82,SW,234,7.0,8.0,66,0.00,CLR,CLR,0.00,WeatherDisplay:10.34,2013-02-26 09:15:00,
2013-02-26 02:20:00,28.2,18.3,29.82,WSW,238,6.0,0.0,66,0.00,CLR,CLR,0.00,WeatherDisplay:10.34,2013-02-26 09:20:00,
2013-02-26 02:25:00,28.3,18.0,29.81,SW,236,3.0,3.0,65,0.00,CLR,CLR,0.00,WeatherDisplay:10.34,2013-02-26 09:25:00,
2013-02-26 02:30:00,28.3,17.7,29.82,SW,232,5.0,5.0,64,0.00,CLR,CLR,0.00,WeatherDisplay:10.34,2013-02-26 09:30:00,
2013-02-26 02:35:00,28.4,17.4,29.82,WSW,243,7.0,8.0,63,0.00,CLR,CLR,0.00,WeatherDisplay:10.34,2013-02-26 09:35:00,
2013-02-26 02:40:00,28.4,16.7,29.82,SW,230,5.0,5.0,61,0.00,CLR,CLR,0.00,WeatherDisplay:10.34,2013-02-26 09:40:00,
2013-02-26 02:45:00,28.5,16.4,29.82,West,259,9.0,9.0,60,0.00,CLR,CLR,0.00,WeatherDisplay:10.34,2013-02-26 09:45:00,
2013-02-26 02:50:00,28.5,15.6,29.82,SW,231,5.0,5.0,58,0.00,CLR,CLR,0.00,WeatherDisplay:10.34,2013-02-26 09:50:00,
2013-02-26 02:55:00,28.6,14.9,29.82,WSW,238,7.0,8.0,56,0.00,CLR,CLR,0.00,WeatherDisplay:10.34,2013-02-26 09:55:00,
2013-02-26 03:00:00,28.7,14.6,29.82,SW,222,5.0,5.0,55,0.00,CLR,CLR,0.00,WeatherDisplay:10.34,2013-02-26 10:00:00,
2013-02-26 03:05:00,28.7,14.1,29.81,SW,225,9.0,9.0,54,0.00,CLR,CLR,0.00,WeatherDisplay:10.34,2013-02-26 10:05:00,
2013-02-26 03:10:00,28.7,13.7,29.81,SW,219,9.0,10.0,53,0.00,CLR,CLR,0.00,WeatherDisplay:10.34,2013-02-26 10:10:00,
2013-02-26 03:15:00,28.6,13.2,29.81,SW,223,7.0,7.0,52,0.00,CLR,CLR,0.00,WeatherDisplay:10.34,2013-02-26 10:15:00,
2013-02-26 03:20:00,28.4,13.0,29.81,SW,227,7.0,7.0,52,0.00,CLR,CLR,0.00,WeatherDisplay:10.34,2013-02-26 10:20:00,
2013-02-26 03:25:00,28.1,12.7,29.81,SW,219,7.0,9.0,52,0.00,CLR,CLR,0.00,WeatherDisplay:10.34,2013-02-26 10:25:00,
2013-02-26 03:30:00,28.0,12.6,29.81,SSW,198,8.0,0.0,52,0.00,CLR,CLR,0.00,WeatherDisplay:10.34,2013-02-26 10:30:00,
2013-02-26 03:35:00,27.5,12.2,29.81,SW,215,7.0,9.0,52,0.00,CLR,CLR,0.00,WeatherDisplay:10.34,2013-02-26 10:35:00,
2013-02-26 03:40:00,27.4,13.3,29.81,SW,230,9.0,0.0,55,0.00,CLR,CLR,0.00,WeatherDisplay:10.34,2013-02-26 10:40:00,
2013-02-26 03:45:00,27.5,13.4,29.82,SW,225,6.0,8.0,55,0.00,CLR,CLR,0.00,WeatherDisplay:10.34,2013-02-26 10:45:00,
2013-02-26 03:50:00,27.5,13.0,29.82,WSW,244,4.0,0.0,54,0.00,CLR,CLR,0.00,WeatherDisplay:10.34,2013-02-26 10:50:00,
2013-02-26 03:55:00,27.5,13.0,29.82,SW,227,5.0,5.0,54,0.00,CLR,CLR,0.00,WeatherDisplay:10.34,2013-02-26 10:55:00,
2013-02-26 04:00:00,27.3,12.8,29.82,SW,230,4.0,4.0,54,0.00,CLR,CLR,0.00,WeatherDisplay:10.34,2013-02-26 11:00:00,
2013-02-26 04:05:00,27.2,12.7,29.83,SW,215,8.0,8.0,54,0.00,CLR,CLR,0.00,WeatherDisplay:10.34,2013-02-26 11:05:00,
2013-02-26 04:10:00,26.8,12.4,29.83,SSW,208,11.0,11.0,54,0.00,CLR,CLR,0.00,WeatherDisplay:10.34,2013-02-26 11:10:00,
2013-02-26 04:15:00,26.2,12.2,29.83,SSW,211,7.0,8.0,55,0.00,CLR,CLR,0.00,WeatherDisplay:10.34,2013-02-26 11:15:00,
2013-02-26 04:20:00,25.8,11.8,29.83,SSW,213,7.0,7.0,55,0.00,CLR,CLR,0.00,WeatherDisplay:10.34,2013-02-26 11:20:00,
2013-02-26 04:25:00,25.6,11.7,29.83,SSW,211,6.0,7.0,55,0.00,CLR,CLR,0.00,WeatherDisplay:10.34,2013-02-26 11:25:00,
2013-02-26 04:30:00,25.5,11.1,29.83,SW,217,7.0,0.0,54,0.00,CLR,CLR,0.00,WeatherDisplay:10.34,2013-02-26 11:30:00,
2013-02-26 04:35:00,25.5,11.1,29.83,SSW,212,3.0,3.0,54,0.00,CLR,CLR,0.00,WeatherDisplay:10.34,2013-02-26 11:35:00,
2013-02-26 04:40:00,25.4,11.0,29.84,SSW,211,7.0,7.0,54,0.00,CLR,CLR,0.00,WeatherDisplay:10.34,2013-02-26 11:40:00,
2013-02-26 04:45:00,25.2,10.9,29.84,SSW,212,4.0,4.0,54,0.00,CLR,CLR,0.00,WeatherDisplay:10.34,2013-02-26 11:45:00,
2013-02-26 04:50:00,25.0,11.1,29.84,SSW,211,0.0,0.0,55,0.00,CLR,CLR,0.00,WeatherDisplay:10.34,2013-02-26 11:50:00,
2013-02-26 04:55:00,25.0,11.1,29.84,WSW,240,4.0,5.0,55,0.00,CLR,CLR,0.00,WeatherDisplay:10.34,2013-02-26 11:55:00,
2013-02-26 05:00:00,25.1,10.8,29.84,WSW,254,4.0,4.0,54,0.00,CLR,CLR,0.00,WeatherDisplay:10.34,2013-02-26 12:00:00,
2013-02-26 05:05:00,25.1,11.2,29.84,NNW,348,1.0,2.0,55,0.00,CLR,CLR,0.00,WeatherDisplay:10.34,2013-02-26 12:05:00,
2013-02-26 05:10:00,25.1,11.2,29.84,NNW,348,0.0,0.0,55,0.00,CLR,CLR,0.00,WeatherDisplay:10.34,2013-02-26 12:10:00,
2013-02-26 05:15:00,25.1,11.2,29.84,NNW,348,0.0,1.0,55,0.00,CLR,CLR,0.00,WeatherDisplay:10.34,2013-02-26 12:15:00,
2013-02-26 05:20:00,25.0,11.1,29.85,WSW,242,4.0,5.0,55,0.00,CLR,CLR,0.00,WeatherDisplay:10.34,2013-02-26 12:20:00,
2013-02-26 05:25:00,25.1,11.2,29.85,WSW,242,0.0,0.0,55,0.00,CLR,CLR,0.00,WeatherDisplay:10.34,2013-02-26 12:25:00,
2013-02-26 05:30:00,25.0,11.1,29.85,West,261,3.0,3.0,55,0.00,CLR,CLR,0.00,WeatherDisplay:10.34,2013-02-26 12:30:00,
2013-02-26 05:35:00,25.2,10.9,29.85,WSW,248,4.0,4.0,54,0.00,CLR,CLR,0.00,WeatherDisplay:10.34,2013-02-26 12:35:00,
2013-02-26 05:40:00,25.6,10.8,29.86,WSW,252,1.0,2.0,53,0.00,CLR,CLR,0.00,WeatherDisplay:10.34,2013-02-26 12:40:00,
2013-02-26 05:45:00,25.9,10.7,29.86,WSW,256,4.0,5.0,52,0.00,CLR,CLR,0.00,WeatherDisplay:10.34,2013-02-26 12:45:00,
2013-02-26 05:50:00,26.2,10.9,29.86,WSW,248,3.0,8.0,52,0.00,CLR,CLR,0.00,WeatherDisplay:10.34,2013-02-26 12:50:00,
2013-02-26 05:55:00,26.6,10.9,29.86,WSW,257,8.0,8.0,51,0.00,CLR,CLR,0.00,WeatherDisplay:10.34,2013-02-26 12:55:00,
2013-02-26 06:00:00,26.8,10.6,29.86,West,261,7.0,7.0,50,0.00,CLR,CLR,0.00,WeatherDisplay:10.34,2013-02-26 13:00:00,
2013-02-26 06:05:00,27.0,10.4,29.86,WSW,257,3.0,5.0,49,0.00,OVC,OVC,0.00,WeatherDisplay:10.34,2013-02-26 13:05:00,
2013-02-26 06:10:00,27.0,10.4,29.86,West,259,2.0,0.0,49,0.00,OVC,OVC,0.00,WeatherDisplay:10.34,2013-02-26 13:10:00,
2013-02-26 06:15:00,26.8,10.2,29.88,West,271,2.0,2.0,49,0.00,OVC,OVC,0.00,WeatherDisplay:10.34,2013-02-26 13:15:00,
2013-02-26 06:20:00,26.2,10.1,29.88,NNE,22,1.0,1.0,50,0.00,OVC,OVC,0.00,WeatherDisplay:10.34,2013-02-26 13:20:00,
2013-02-26 06:25:00,25.8,10.1,29.88,NNE,22,0.0,0.0,51,0.00,OVC,OVC,0.00,WeatherDisplay:10.34,2013-02-26 13:25:00,
2013-02-26 06:30:00,25.6,10.4,29.89,NNE,22,0.0,0.0,52,0.00,OVC,OVC,0.00,WeatherDisplay:10.34,2013-02-26 13:30:00,
2013-02-26 06:35:00,25.4,10.2,29.89,NNE,22,0.0,0.0,52,0.00,OVC,OVC,0.00,WeatherDisplay:10.34,2013-02-26 13:35:00,
2013-02-26 06:40:00,25.1,9.9,29.89,NNE,22,0.0,0.0,52,0.00,OVC,OVC,0.00,WeatherDisplay:10.34,2013-02-26 13:40:00,
2013-02-26 06:45:00,24.8,10.1,29.89,NNE,22,0.0,0.0,53,0.00,OVC,OVC,0.00,WeatherDisplay:10.34,2013-02-26 13:45:00,
2013-02-26 06:50:00,24.4,9.7,29.89,NNE,22,0.0,0.0,53,0.00,OVC,OVC,0.00,WeatherDisplay:10.34,2013-02-26 13:50:00,
2013-02-26 06:55:00,24.0,9.7,29.89,NNE,22,0.0,0.0,54,0.00,OVC,OVC,0.00,WeatherDisplay:10.34,2013-02-26 13:55:00,
2013-02-26 07:00:00,23.5,9.7,29.89,NNE,22,0.0,0.0,55,0.00,OVC,OVC,0.00,WeatherDisplay:10.34,2013-02-26 14:00:00,
2013-02-26 07:05:00,23.1,9.3,29.90,WSW,256,2.0,2.0,55,0.00,OVC,OVC,0.00,WeatherDisplay:10.34,2013-02-26 14:05:00,
2013-02-26 07:10:00,22.4,8.7,29.90,WSW,256,0.0,0.0,55,0.00,OVC,OVC,0.00,WeatherDisplay:10.34,2013-02-26 14:10:00,
2013-02-26 07:15:00,22.0,8.3,29.90,WSW,256,0.0,0.0,55,0.00,OVC,OVC,0.00,WeatherDisplay:10.34,2013-02-26 14:15:00,
2013-02-26 07:20:00,21.6,8.3,29.90,WSW,256,1.0,1.0,56,0.00,OVC,OVC,0.00,WeatherDisplay:10.34,2013-02-26 14:20:00,
2013-02-26 07:25:00,21.2,8.3,29.90,WSW,256,0.0,1.0,57,0.00,OVC,OVC,0.00,WeatherDisplay:10.34,2013-02-26 14:25:00,
2013-02-26 07:30:00,21.0,8.1,29.90,WSW,256,1.0,1.0,57,0.00,OVC,OVC,0.00,WeatherDisplay:10.34,2013-02-26 14:30:00,
2013-02-26 07:35:00,20.7,7.9,29.90,WSW,256,0.0,0.0,57,0.00,OVC,OVC,0.00,WeatherDisplay:10.34,2013-02-26 14:35:00,
2013-02-26 07:40:00,20.4,8.0,29.91,WSW,256,0.0,0.0,58,0.00,CLR,CLR,0.00,WeatherDisplay:10.34,2013-02-26 14:40:00,
2013-02-26 07:45:00,20.2,8.1,29.91,WSW,257,1.0,2.0,59,0.00,CLR,CLR,0.00,WeatherDisplay:10.34,2013-02-26 14:45:00,
2013-02-26 07:50:00,20.1,8.8,29.91,WSW,256,0.0,0.0,61,0.00,CLR,CLR,0.00,WeatherDisplay:10.34,2013-02-26 14:50:00,
2013-02-26 07:55:00,20.0,8.7,29.91,WSW,256,0.0,0.0,61,0.00,CLR,CLR,0.00,WeatherDisplay:10.34,2013-02-26 14:55:00,
2013-02-26 08:00:00,20.0,9.4,29.91,WSW,256,0.0,1.0,63,0.00,CLR,CLR,0.00,WeatherDisplay:10.34,2013-02-26 15:00:00,
2013-02-26 08:05:00,20.1,9.9,29.91,WSW,257,0.0,1.0,64,0.00,CLR,CLR,0.00,WeatherDisplay:10.34,2013-02-26 15:05:00,
2013-02-26 08:10:00,20.2,10.6,29.92,WSW,257,1.0,1.0,66,0.00,CLR,CLR,0.00,WeatherDisplay:10.34,2013-02-26 15:10:00,
2013-02-26 08:15:00,20.7,11.8,29.92,WNW,290,2.0,2.0,68,0.00,CLR,CLR,0.00,WeatherDisplay:10.34,2013-02-26 15:15:00,
2013-02-26 08:20:00,22.1,13.1,29.92,WNW,292,1.0,1.0,68,0.00,CLR,CLR,0.00,WeatherDisplay:10.34,2013-02-26 15:20:00,
2013-02-26 08:25:00,23.9,14.2,29.92,WNW,288,1.0,2.0,66,0.00,SCT,SCT,0.00,WeatherDisplay:10.34,2013-02-26 15:25:00,
2013-02-26 08:30:00,25.6,14.4,29.92,West,264,1.0,2.0,62,0.00,SCT,SCT,0.00,WeatherDisplay:10.34,2013-02-26 15:30:00,
2013-02-26 08:35:00,27.0,14.6,29.92,West,280,4.0,7.0,59,0.00,FEW,FEW,0.00,WeatherDisplay:10.34,2013-02-26 15:35:00,
2013-02-26 08:40:00,28.1,14.8,29.93,WNW,290,2.0,2.0,57,0.00,CLR,CLR,0.00,WeatherDisplay:10.34,2013-02-26 15:40:00,
2013-02-26 08:46:00,29.2,15.4,29.93,NW,304,5.0,8.0,56,0.00,CLR,CLR,0.00,WeatherDisplay:10.34,2013-02-26 15:46:00,
2013-02-26 08:51:00,30.1,15.4,29.93,West,279,8.0,9.0,54,0.00,CLR,CLR,0.00,WeatherDisplay:10.34,2013-02-26 15:51:00,
2013-02-26 08:56:00,31.0,15.0,29.93,WNW,293,6.0,8.0,51,0.00,CLR,CLR,0.00,WeatherDisplay:10.34,2013-02-26 15:56:00,
2013-02-26 09:01:00,31.8,14.8,29.93,West,276,6.0,10.0,49,0.00,CLR,CLR,0.00,WeatherDisplay:10.34,2013-02-26 16:01:00,
2013-02-26 09:06:00,32.6,14.6,29.93,West,271,6.0,9.0,47,0.00,CLR,CLR,0.00,WeatherDisplay:10.34,2013-02-26 16:06:00,
2013-02-26 09:11:00,33.2,14.6,29.95,NW,304,9.0,10.0,46,0.00,CLR,CLR,0.00,WeatherDisplay:10.34,2013-02-26 16:11:00,
2013-02-26 09:16:00,33.4,14.8,29.95,NNW,333,10.0,12.0,46,0.00,CLR,CLR,0.00,WeatherDisplay:10.34,2013-02-26 16:16:00,
2013-02-26 09:21:00,33.3,14.2,29.95,NW,322,4.0,8.0,45,0.00,CLR,CLR,0.00,WeatherDisplay:10.34,2013-02-26 16:21:00,
2013-02-26 09:26:00,33.4,14.3,29.95,NW,307,8.0,9.0,45,0.00,CLR,CLR,0.00,WeatherDisplay:10.34,2013-02-26 16:26:00,
2013-02-26 09:31:00,33.4,14.3,29.95,WNW,298,8.0,8.0,45,0.00,SCT,SCT,0.00,WeatherDisplay:10.34,2013-02-26 16:31:00,
2013-02-26 09:36:00,33.2,13.6,29.95,NNW,346,7.0,10.0,44,0.00,SCT,SCT,0.00,WeatherDisplay:10.34,2013-02-26 16:36:00,
2013-02-26 09:41:00,33.0,13.4,29.95,NW,311,9.0,12.0,44,0.00,BKN,BKN,0.00,WeatherDisplay:10.34,2013-02-26 16:41:00,
2013-02-26 09:46:00,32.8,13.2,29.95,NNW,333,9.0,14.0,44,0.00,FEW,FEW,0.00,WeatherDisplay:10.34,2013-02-26 16:46:00,
2013-02-26 09:51:00,33.1,13.5,29.95,NNW,327,8.0,10.0,44,0.00,CLR,CLR,0.00,WeatherDisplay:10.34,2013-02-26 16:51:00,
2013-02-26 09:56:00,33.5,13.4,29.95,NW,314,5.0,7.0,43,0.00,CLR,CLR,0.00,WeatherDisplay:10.34,2013-02-26 16:56:00,
2013-02-26 10:01:00,34.4,14.7,29.95,NNW,328,9.0,12.0,44,0.00,CLR,CLR,0.00,WeatherDisplay:10.34,2013-02-26 17:01:00,
2013-02-26 10:06:00,35.1,14.3,29.95,NNW,329,10.0,12.0,42,0.00,CLR,CLR,0.00,WeatherDisplay:10.34,2013-02-26 17:06:00,
2013-02-26 10:11:00,36.0,15.1,29.95,West,271,9.0,13.0,42,0.00,CLR,CLR,0.00,WeatherDisplay:10.34,2013-02-26 17:11:00,
2013-02-26 10:16:00,36.4,14.3,29.95,WNW,303,14.0,15.0,40,0.00,CLR,CLR,0.00,WeatherDisplay:10.34,2013-02-26 17:16:00,
2013-02-26 10:21:00,36.6,14.5,29.95,WNW,292,7.0,13.0,40,0.00,CLR,CLR,0.00,WeatherDisplay:10.34,2013-02-26 17:21:00,
2013-02-26 10:26:00,37.4,14.7,29.95,WSW,254,8.0,9.0,39,0.00,CLR,CLR,0.00,WeatherDisplay:10.34,2013-02-26 17:26:00,
2013-02-26 10:31:00,38.0,14.6,29.95,NNW,338,10.0,12.0,38,0.00,CLR,CLR,0.00,WeatherDisplay:10.34,2013-02-26 17:31:00,
2013-02-26 10:36:00,38.1,14.1,29.95,NW,305,9.0,12.0,37,0.00,CLR,CLR,0.00,WeatherDisplay:10.34,2013-02-26 17:36:00,
2013-02-26 10:41:00,38.3,14.3,29.95,WNW,300,11.0,12.0,37,0.00,CLR,CLR,0.00,WeatherDisplay:10.34,2013-02-26 17:41:00,
2013-02-26 10:46:00,38.4,13.7,29.95,WNW,302,10.0,21.0,36,0.00,CLR,CLR,0.00,WeatherDisplay:10.34,2013-02-26 17:46:00,
2013-02-26 10:51:00,38.3,13.6,29.95,WNW,303,14.0,21.0,36,0.00,CLR,CLR,0.00,WeatherDisplay:10.34,2013-02-26 17:51:00,
2013-02-26 10:56:00,38.3,13.6,29.95,NW,314,14.0,16.0,36,0.00,CLR,CLR,0.00,WeatherDisplay:10.34,2013-02-26 17:56:00,
2013-02-26 11:01:00,38.5,13.8,29.95,West,279,14.0,21.0,36,0.00,CLR,CLR,0.00,WeatherDisplay:10.34,2013-02-26 18:01:00,
2013-02-26 11:06:00,38.6,13.3,29.95,West,261,11.0,12.0,35,0.00,CLR,CLR,0.00,WeatherDisplay:10.34,2013-02-26 18:06:00,
2013-02-26 11:11:00,38.5,13.2,29.95,NNW,340,17.0,17.0,35,0.00,CLR,CLR,0.00,WeatherDisplay:10.34,2013-02-26 18:11:00,
2013-02-26 11:16:00,38.6,13.9,29.95,NNW,332,12.0,20.0,36,0.00,CLR,CLR,0.00,WeatherDisplay:10.34,2013-02-26 18:16:00,
2013-02-26 11:21:00,38.8,13.4,29.95,NW,308,13.0,20.0,35,0.00,CLR,CLR,0.00,WeatherDisplay:10.34,2013-02-26 18:21:00,
2013-02-26 11:26:00,38.7,13.4,29.95,WNW,293,17.0,23.0,35,0.00,CLR,CLR,0.00,WeatherDisplay:10.34,2013-02-26 18:26:00,
2013-02-26 11:31:00,38.4,13.1,29.95,NW,315,12.0,16.0,35,0.00,CLR,CLR,0.00,WeatherDisplay:10.34,2013-02-26 18:31:00,
2013-02-26 11:36:00,38.8,13.4,29.95,WNW,296,12.0,15.0,35,0.00,CLR,CLR,0.00,WeatherDisplay:10.34,2013-02-26 18:36:00,
2013-02-26 11:41:00,39.3,13.2,29.95,NW,313,13.0,16.0,34,0.00,CLR,CLR,0.00,WeatherDisplay:10.34,2013-02-26 18:41:00,
2013-02-26 11:46:00,39.8,13.0,29.95,West,272,14.0,17.0,33,0.00,CLR,CLR,0.00,WeatherDisplay:10.34,2013-02-26 18:46:00,
2013-02-26 11:51:00,40.3,12.7,29.95,NNW,329,14.0,15.0,32,0.00,CLR,CLR,0.00,WeatherDisplay:10.34,2013-02-26 18:51:00,
2013-02-26 11:56:00,40.4,12.8,29.95,NNW,347,13.0,16.0,32,0.00,CLR,CLR,0.00,WeatherDisplay:10.34,2013-02-26 18:56:00,
2013-02-26 12:01:00,40.5,12.9,29.95,NW,307,10.0,20.0,32,0.00,CLR,CLR,0.00,WeatherDisplay:10.34,2013-02-26 19:01:00,
2013-02-26 12:06:00,40.0,13.2,29.95,West,260,14.0,16.0,33,0.00,CLR,CLR,0.00,WeatherDisplay:10.34,2013-02-26 19:06:00,
2013-02-26 12:11:00,39.9,12.4,29.95,WNW,300,18.0,18.0,32,0.00,CLR,CLR,0.00,WeatherDisplay:10.34,2013-02-26 19:11:00,
2013-02-26 12:16:00,40.0,11.8,29.95,NNW,329,11.0,17.0,31,0.00,CLR,CLR,0.00,WeatherDisplay:10.34,2013-02-26 19:16:00,
2013-02-26 12:21:00,40.2,13.3,29.95,NNW,341,16.0,21.0,33,0.00,CLR,CLR,0.00,WeatherDisplay:10.34,2013-02-26 19:21:00,
2013-02-26 12:26:00,40.6,13.7,29.95,North,355,12.0,16.0,33,0.00,CLR,CLR,0.00,WeatherDisplay:10.34,2013-02-26 19:26:00,
2013-02-26 12:31:00,40.6,13.0,29.95,WNW,299,11.0,11.0,32,0.00,CLR,CLR,0.00,WeatherDisplay:10.34,2013-02-26 19:31:00,
2013-02-26 12:36:00,40.7,13.1,29.95,WNW,303,14.0,14.0,32,0.00,CLR,CLR,0.00,WeatherDisplay:10.34,2013-02-26 19:36:00,
2013-02-26 12:41:00,40.6,13.0,29.95,NNW,338,17.0,17.0,32,0.00,CLR,CLR,0.00,WeatherDisplay:10.34,2013-02-26 19:41:00,
2013-02-26 12:46:00,40.9,12.5,29.95,WNW,297,22.0,22.0,31,0.00,CLR,CLR,0.00,WeatherDisplay:10.34,2013-02-26 19:46:00,
2013-02-26 12:51:00,40.6,13.0,29.95,NW,323,23.0,26.0,32,0.00,CLR,CLR,0.00,WeatherDisplay:10.34,2013-02-26 19:51:00,
2013-02-26 12:56:00,40.7,13.1,29.95,NNW,332,13.0,16.0,32,0.00,CLR,CLR,0.00,WeatherDisplay:10.34,2013-02-26 19:56:00,
2013-02-26 13:01:00,41.2,12.8,29.95,West,275,16.0,16.0,31,0.00,CLR,CLR,0.00,WeatherDisplay:10.34,2013-02-26 20:01:00,
2013-02-26 13:06:00,40.7,13.1,29.95,North,355,19.0,24.0,32,0.00,CLR,CLR,0.00,WeatherDisplay:10.34,2013-02-26 20:06:00,
2013-02-26 13:11:00,40.8,12.5,29.96,NNW,344,22.0,25.0,31,0.00,CLR,CLR,0.00,WeatherDisplay:10.34,2013-02-26 20:11:00,
2013-02-26 13:16:00,40.9,13.3,29.96,NW,310,18.0,18.0,32,0.00,CLR,CLR,0.00,WeatherDisplay:10.34,2013-02-26 20:16:00,
2013-02-26 13:21:00,40.8,13.9,29.95,NNW,331,15.0,15.0,33,0.00,CLR,CLR,0.00,WeatherDisplay:10.34,2013-02-26 20:21:00,
2013-02-26 13:26:00,40.9,12.5,29.95,West,271,23.0,24.0,31,0.00,CLR,CLR,0.00,WeatherDisplay:10.34,2013-02-26 20:26:00,
2013-02-26 13:31:00,40.7,13.1,29.95,NNW,330,14.0,14.0,32,0.00,CLR,CLR,0.00,WeatherDisplay:10.34,2013-02-26 20:31:00,
2013-02-26 13:36:00,41.0,12.6,29.95,North,351,19.0,20.0,31,0.00,CLR,CLR,0.00,WeatherDisplay:10.34,2013-02-26 20:36:00,
2013-02-26 13:41:00,40.6,13.0,29.95,NW,325,17.0,17.0,32,0.00,CLR,CLR,0.00,WeatherDisplay:10.34,2013-02-26 20:41:00,
2013-02-26 13:46:00,41.0,13.4,29.95,NNW,347,17.0,20.0,32,0.00,CLR,CLR,0.00,WeatherDisplay:10.34,2013-02-26 20:46:00,
2013-02-26 13:52:00,41.4,12.2,29.95,NNW,340,11.0,11.0,30,0.00,CLR,CLR,0.00,WeatherDisplay:10.34,2013-02-26 20:52:00,
2013-02-26 13:57:00,41.4,13.7,29.95,NNW,336,11.0,15.0,32,0.00,CLR,CLR,0.00,WeatherDisplay:10.34,2013-02-26 20:57:00,
2013-02-26 14:02:00,40.7,12.4,29.95,North,355,20.0,24.0,31,0.00,CLR,CLR,0.00,WeatherDisplay:10.34,2013-02-26 21:02:00,
2013-02-26 14:07:00,40.7,11.6,29.95,NW,321,14.0,14.0,30,0.00,CLR,CLR,0.00,WeatherDisplay:10.34,2013-02-26 21:07:00,
2013-02-26 14:12:00,41.3,12.9,29.95,NNW,334,18.0,23.0,31,0.00,CLR,CLR,0.00,WeatherDisplay:10.34,2013-02-26 21:12:00,
2013-02-26 14:17:00,40.7,12.4,29.95,North,360,20.0,20.0,31,0.00,CLR,CLR,0.00,WeatherDisplay:10.34,2013-02-26 21:17:00,
2013-02-26 14:22:00,40.5,12.2,29.95,NNW,344,21.0,21.0,31,0.00,CLR,CLR,0.00,WeatherDisplay:10.34,2013-02-26 21:22:00,
2013-02-26 14:27:00,40.0,11.8,29.95,NNW,346,25.0,25.0,31,0.00,CLR,CLR,0.00,WeatherDisplay:10.34,2013-02-26 21:27:00,
2013-02-26 14:32:00,39.7,12.2,29.95,WNW,295,14.0,16.0,32,0.00,CLR,CLR,0.00,WeatherDisplay:10.34,2013-02-26 21:32:00,
2013-02-26 14:37:00,40.3,12.0,29.96,North,349,22.0,22.0,31,0.00,CLR,CLR,0.00,WeatherDisplay:10.34,2013-02-26 21:37:00,
2013-02-26 14:42:00,39.9,10.9,29.96,NNW,330,22.0,22.0,30,0.00,CLR,CLR,0.00,WeatherDisplay:10.34,2013-02-26 21:42:00,
2013-02-26 14:47:00,39.8,11.6,29.96,North,355,20.0,20.0,31,0.00,CLR,CLR,0.00,WeatherDisplay:10.34,2013-02-26 21:47:00,
2013-02-26 14:52:00,40.0,11.8,29.96,NNW,341,23.0,23.0,31,0.00,CLR,CLR,0.00,WeatherDisplay:10.34,2013-02-26 21:52:00,
2013-02-26 14:57:00,39.9,11.7,29.96,NW,321,18.0,24.0,31,0.00,CLR,CLR,0.00,WeatherDisplay:10.34,2013-02-26 21:57:00,
2013-02-26 15:02:00,39.8,11.6,29.96,NW,323,21.0,21.0,31,0.00,CLR,CLR,0.00,WeatherDisplay:10.34,2013-02-26 22:02:00,
2013-02-26 15:07:00,39.7,10.7,29.96,NNW,329,13.0,13.0,30,0.00,CLR,CLR,0.00,WeatherDisplay:10.34,2013-02-26 22:07:00,
2013-02-26 15:12:00,40.4,11.4,29.97,NNW,344,17.0,21.0,30,0.00,CLR,CLR,0.00,WeatherDisplay:10.34,2013-02-26 22:12:00,
2013-02-26 15:17:00,40.8,10.9,29.97,NW,325,15.0,15.0,29,0.00,CLR,CLR,0.00,WeatherDisplay:10.34,2013-02-26 22:17:00,
2013-02-26 15:22:00,40.5,10.7,29.97,NNW,329,17.0,17.0,29,0.00,CLR,CLR,0.00,WeatherDisplay:10.34,2013-02-26 22:22:00,
2013-02-26 15:27:00,40.6,11.5,29.97,North,355,11.0,11.0,30,0.00,CLR,CLR,0.00,WeatherDisplay:10.34,2013-02-26 22:27:00,
2013-02-26 15:32:00,40.2,11.2,29.97,NNW,346,21.0,21.0,30,0.00,CLR,CLR,0.00,WeatherDisplay:10.34,2013-02-26 22:32:00,
2013-02-26 15:37:00,39.9,10.9,29.97,North,355,12.0,17.0,30,0.00,CLR,CLR,0.00,WeatherDisplay:10.34,2013-02-26 22:37:00,
2013-02-26 15:42:00,39.8,11.6,29.98,WNW,292,14.0,17.0,31,0.00,CLR,CLR,0.00,WeatherDisplay:10.34,2013-02-26 22:42:00,
2013-02-26 15:47:00,40.1,11.8,29.98,NNW,333,16.0,17.0,31,0.00,CLR,CLR,0.00,WeatherDisplay:10.34,2013-02-26 22:47:00,
2013-02-26 15:52:00,40.0,11.0,29.98,NW,318,12.0,14.0,30,0.00,CLR,CLR,0.00,WeatherDisplay:10.34,2013-02-26 22:52:00,
2013-02-26 15:57:00,39.5,11.3,29.99,North,355,19.0,22.0,31,0.00,CLR,CLR,0.00,WeatherDisplay:10.34,2013-02-26 22:57:00,
2013-02-26 16:03:00,39.7,10.7,29.99,NW,310,15.0,17.0,30,0.00,CLR,CLR,0.00,WeatherDisplay:10.34,2013-02-26 23:03:00,
2013-02-26 16:08:00,39.7,10.7,29.99,West,268,15.0,17.0,30,0.00,CLR,CLR,0.00,WeatherDisplay:10.34,2013-02-26 23:08:00,
2013-02-26 16:13:00,39.9,10.2,29.99,NW,325,14.0,20.0,29,0.00,CLR,CLR,0.00,WeatherDisplay:10.34,2013-02-26 23:13:00,
2013-02-26 16:18:00,39.3,10.4,29.99,NNE,20,18.0,21.0,30,0.00,CLR,CLR,0.00,WeatherDisplay:10.34,2013-02-26 23:18:00,
2013-02-26 16:23:00,39.0,10.1,29.99,NNW,346,20.0,21.0,30,0.00,CLR,CLR,0.00,WeatherDisplay:10.34,2013-02-26 23:23:00,
2013-02-26 16:28:00,38.9,10.8,29.99,North,351,19.0,22.0,31,0.00,CLR,CLR,0.00,WeatherDisplay:10.34,2013-02-26 23:28:00,
2013-02-26 16:33:00,38.9,10.8,29.99,NNW,340,12.0,15.0,31,0.00,CLR,CLR,0.00,WeatherDisplay:10.34,2013-02-26 23:33:00,
2013-02-26 16:38:00,38.9,10.8,29.99,WNW,302,13.0,21.0,31,0.00,CLR,CLR,0.00,WeatherDisplay:10.34,2013-02-26 23:38:00,
2013-02-26 16:43:00,38.6,11.9,30.00,WNW,288,12.0,17.0,33,0.00,CLR,CLR,0.00,WeatherDisplay:10.34,2013-02-26 23:43:00,
2013-02-26 16:48:00,38.3,11.7,30.00,NNW,347,15.0,16.0,33,0.00,FEW,FEW,0.00,WeatherDisplay:10.34,2013-02-26 23:48:00,
2013-02-26 16:53:00,38.0,12.1,30.00,NW,321,11.0,14.0,34,0.00,CLR,CLR,0.00,WeatherDisplay:10.34,2013-02-26 23:53:00,
2013-02-26 16:58:00,37.9,12.0,30.00,SW,227,14.0,15.0,34,0.00,BKN,BKN,0.00,WeatherDisplay:10.34,2013-02-26 23:58:00,
2013-02-26 17:03:00,37.6,12.4,30.01,WNW,288,6.0,12.0,35,0.00,FEW,FEW,0.00,WeatherDisplay:10.34,2013-02-27 00:03:00,
2013-02-26 17:08:00,37.3,12.7,30.01,WNW,297,11.0,12.0,36,0.00,OVC,OVC,0.00,WeatherDisplay:10.34,2013-02-27 00:08:00,
2013-02-26 17:13:00,36.7,12.8,30.01,NW,319,9.0,10.0,37,0.00,OVC,OVC,0.00,WeatherDisplay:10.34,2013-02-27 00:13:00,
2013-02-26 17:18:00,36.1,12.9,30.01,NW,318,5.0,12.0,38,0.00,OVC,OVC,0.00,WeatherDisplay:10.34,2013-02-27 00:18:00,
2013-02-26 17:23:00,35.6,13.0,30.02,NW,321,5.0,8.0,39,0.00,OVC,OVC,0.00,WeatherDisplay:10.34,2013-02-27 00:23:00,
2013-02-26 17:28:00,35.1,13.2,30.02,WNW,301,3.0,5.0,40,0.00,OVC,OVC,0.00,WeatherDisplay:10.34,2013-02-27 00:28:00,
2013-02-26 17:33:00,34.4,13.1,30.02,NW,323,4.0,5.0,41,0.00,OVC,OVC,0.00,WeatherDisplay:10.34,2013-02-27 00:33:00,
2013-02-26 17:38:00,34.2,13.5,30.02,WNW,296,3.0,5.0,42,0.00,OVC,OVC,0.00,WeatherDisplay:10.34,2013-02-27 00:38:00,
2013-02-26 17:43:00,33.8,13.1,30.03,NW,311,2.0,2.0,42,0.00,OVC,OVC,0.00,WeatherDisplay:10.34,2013-02-27 00:43:00,
2013-02-26 17:48:00,33.4,12.7,30.03,WNW,297,1.0,2.0,42,0.00,OVC,OVC,0.00,WeatherDisplay:10.34,2013-02-27 00:48:00,
2013-02-26 17:53:00,32.9,12.8,30.03,NW,323,1.0,1.0,43,0.00,OVC,OVC,0.00,WeatherDisplay:10.34,2013-02-27 00:53:00,
2013-02-26 17:58:00,32.5,12.5,30.03,NNW,327,4.0,4.0,43,0.00,OVC,OVC,0.00,WeatherDisplay:10.34,2013-02-27 00:58:00,
2013-02-26 18:03:00,32.2,12.7,30.03,NW,311,4.0,4.0,44,0.00,CLR,CLR,0.00,WeatherDisplay:10.34,2013-02-27 01:03:00,
2013-02-26 18:08:00,31.8,12.3,30.03,NW,311,3.0,3.0,44,0.00,CLR,CLR,0.00,WeatherDisplay:10.34,2013-02-27 01:08:00,
2013-02-26 18:14:00,31.4,12.5,30.04,West,269,1.0,2.0,45,0.00,CLR,CLR,0.00,WeatherDisplay:10.34,2013-02-27 01:14:00,
2013-02-26 18:19:00,31.1,12.7,30.04,NW,314,3.0,7.0,46,0.00,CLR,CLR,0.00,WeatherDisplay:10.34,2013-02-27 01:19:00,
2013-02-26 18:24:00,30.8,12.4,30.04,NW,314,4.0,4.0,46,0.00,CLR,CLR,0.00,WeatherDisplay:10.34,2013-02-27 01:24:00,
2013-02-26 18:29:00,30.6,12.7,30.04,NNW,345,6.0,7.0,47,0.00,CLR,CLR,0.00,WeatherDisplay:10.34,2013-02-27 01:29:00,
2013-02-26 18:34:00,30.4,12.5,30.04,NW,314,5.0,5.0,47,0.00,CLR,CLR,0.00,WeatherDisplay:10.34,2013-02-27 01:34:00,
2013-02-26 18:39:00,30.3,12.5,30.04,NNW,329,4.0,5.0,47,0.00,CLR,CLR,0.00,WeatherDisplay:10.34,2013-02-27 01:39:00,
2013-02-26 18:44:00,30.3,12.9,30.05,NNW,337,5.0,5.0,48,0.00,CLR,CLR,0.00,WeatherDisplay:10.34,2013-02-27 01:44:00,
2013-02-26 18:49:00,30.2,12.8,30.05,NNW,333,5.0,5.0,48,0.00,CLR,CLR,0.00,WeatherDisplay:10.34,2013-02-27 01:49:00,
2013-02-26 18:54:00,30.2,12.8,30.05,NW,307,3.0,3.0,48,0.00,CLR,CLR,0.00,WeatherDisplay:10.34,2013-02-27 01:54:00,
2013-02-26 18:59:00,30.1,13.2,30.05,NW,326,4.0,4.0,49,0.00,CLR,CLR,0.00,WeatherDisplay:10.34,2013-02-27 01:59:00,
2013-02-26 19:04:00,30.1,13.2,30.05,NW,315,5.0,7.0,49,0.00,CLR,CLR,0.00,WeatherDisplay:10.34,2013-02-27 02:04:00,
2013-02-26 19:09:00,30.1,13.2,30.05,NW,326,3.0,3.0,49,0.00,CLR,CLR,0.00,WeatherDisplay:10.34,2013-02-27 02:09:00,
2013-02-26 19:14:00,29.9,13.0,30.05,NNW,343,6.0,7.0,49,0.00,CLR,CLR,0.00,WeatherDisplay:10.34,2013-02-27 02:14:00,
2013-02-26 19:19:00,29.8,12.9,30.06,NNW,341,11.0,12.0,49,0.00,CLR,CLR,0.00,WeatherDisplay:10.34,2013-02-27 02:19:00,
2013-02-26 19:24:00,29.9,13.5,30.06,NNW,327,11.0,12.0,50,0.00,CLR,CLR,0.00,WeatherDisplay:10.34,2013-02-27 02:24:00,
2013-02-26 19:29:00,29.8,13.4,30.06,NW,304,10.0,10.0,50,0.00,CLR,CLR,0.00,WeatherDisplay:10.34,2013-02-27 02:29:00,
2013-02-26 19:34:00,29.7,13.3,30.06,NNW,330,7.0,7.0,50,0.00,CLR,CLR,0.00,WeatherDisplay:10.34,2013-02-27 02:34:00,
2013-02-26 19:39:00,29.6,13.2,30.06,NNW,346,3.0,3.0,50,0.00,CLR,CLR,0.00,WeatherDisplay:10.34,2013-02-27 02:39:00,
2013-02-26 19:44:00,29.4,13.5,30.06,NNW,340,7.0,8.0,51,0.00,CLR,CLR,0.00,WeatherDisplay:10.34,2013-02-27 02:44:00,
2013-02-26 19:49:00,29.1,13.6,30.06,NNW,334,4.0,5.0,52,0.00,CLR,CLR,0.00,WeatherDisplay:10.34,2013-02-27 02:49:00,
2013-02-26 19:54:00,28.9,13.9,30.07,NNW,334,1.0,2.0,53,0.00,CLR,CLR,0.00,WeatherDisplay:10.34,2013-02-27 02:54:00,
2013-02-26 19:59:00,28.8,13.8,30.07,NNW,334,0.0,0.0,53,0.00,CLR,CLR,0.00,WeatherDisplay:10.34,2013-02-27 02:59:00,
2013-02-26 20:04:00,28.8,13.8,30.07,NNW,335,0.0,1.0,53,0.00,CLR,CLR,0.00,WeatherDisplay:10.34,2013-02-27 03:04:00,
2013-02-26 20:09:00,28.7,14.1,30.07,NNW,335,0.0,0.0,54,0.00,CLR,CLR,0.00,WeatherDisplay:10.34,2013-02-27 03:09:00,
2013-02-26 20:14:00,28.5,13.9,30.07,NNW,335,0.0,0.0,54,0.00,CLR,CLR,0.00,WeatherDisplay:10.34,2013-02-27 03:14:00,
2013-02-26 20:19:00,28.5,13.9,30.08,NNW,335,0.0,1.0,54,0.00,CLR,CLR,0.00,WeatherDisplay:10.34,2013-02-27 03:19:00,
2013-02-26 20:24:00,28.4,14.3,30.08,NNW,335,0.0,0.0,55,0.00,CLR,CLR,0.00,WeatherDisplay:10.34,2013-02-27 03:24:00,
2013-02-26 20:29:00,28.2,14.1,30.08,NNW,335,0.0,0.0,55,0.00,CLR,CLR,0.00,WeatherDisplay:10.34,2013-02-27 03:29:00,
2013-02-26 20:34:00,28.1,13.6,30.08,NNW,335,1.0,1.0,54,0.00,CLR,CLR,0.00,WeatherDisplay:10.34,2013-02-27 03:34:00,
2013-02-26 20:39:00,27.8,12.9,30.08,NNW,334,2.0,2.0,53,0.00,CLR,CLR,0.00,WeatherDisplay:10.34,2013-02-27 03:39:00,
2013-02-26 20:44:00,27.5,12.6,30.08,ESE,122,2.0,2.0,53,0.00,CLR,CLR,0.00,WeatherDisplay:10.34,2013-02-27 03:44:00,
2013-02-26 20:49:00,27.2,14.0,30.08,ESE,121,3.0,3.0,57,0.00,CLR,CLR,0.00,WeatherDisplay:10.34,2013-02-27 03:49:00,
2013-02-26 20:54:00,26.9,14.9,30.08,NE,52,1.0,3.0,60,0.00,CLR,CLR,0.00,WeatherDisplay:10.34,2013-02-27 03:54:00,
2013-02-26 20:59:00,27.1,15.0,30.08,NNE,15,2.0,2.0,60,0.00,CLR,CLR,0.00,WeatherDisplay:10.34,2013-02-27 03:59:00,
2013-02-26 21:04:00,27.6,16.6,30.08,NNW,337,6.0,8.0,63,0.00,CLR,CLR,0.00,WeatherDisplay:10.34,2013-02-27 04:04:00,
2013-02-26 21:09:00,28.0,16.6,30.08,North,350,3.0,3.0,62,0.00,CLR,CLR,0.00,WeatherDisplay:10.34,2013-02-27 04:09:00,
2013-02-26 21:14:00,28.3,16.9,30.09,North,350,0.0,0.0,62,0.00,CLR,CLR,0.00,WeatherDisplay:10.34,2013-02-27 04:14:00,
2013-02-26 21:19:00,28.4,17.0,30.09,North,350,0.0,1.0,62,0.00,CLR,CLR,0.00,WeatherDisplay:10.34,2013-02-27 04:19:00,
2013-02-26 21:24:00,28.3,15.8,30.09,North,350,3.0,3.0,59,0.00,CLR,CLR,0.00,WeatherDisplay:10.34,2013-02-27 04:24:00,
2013-02-26 21:29:00,28.0,14.7,30.09,SSE,151,5.0,5.0,57,0.00,CLR,CLR,0.00,WeatherDisplay:10.34,2013-02-27 04:29:00,
2013-02-26 21:34:00,27.7,14.0,30.09,SSE,150,2.0,2.0,56,0.00,CLR,CLR,0.00,WeatherDisplay:10.34,2013-02-27 04:34:00,
2013-02-26 21:39:00,27.6,13.9,30.09,SSE,151,0.0,0.0,56,0.00,CLR,CLR,0.00,WeatherDisplay:10.34,2013-02-27 04:39:00,
2013-02-26 21:44:00,27.4,14.1,30.10,SSE,151,0.0,0.0,57,0.00,CLR,CLR,0.00,WeatherDisplay:10.34,2013-02-27 04:44:00,
2013-02-26 21:49:00,27.3,13.7,30.10,SSE,151,2.0,2.0,56,0.00,CLR,CLR,0.00,WeatherDisplay:10.34,2013-02-27 04:49:00,
2013-02-26 21:54:00,27.0,13.0,30.09,SSE,151,3.0,3.0,55,0.00,CLR,CLR,0.00,WeatherDisplay:10.34,2013-02-27 04:54:00,
2013-02-26 22:00:00,26.7,11.9,30.09,SSE,158,0.0,0.0,53,0.00,CLR,CLR,0.00,WeatherDisplay:10.34,2013-02-27 05:00:00,
2013-02-26 22:01:00,26.7,11.8,30.09,SSE,151,0.0,0.0,53,0.00,CLR,CLR,0.00,WeatherDisplay:10.34,2013-02-27 05:01:00,
2013-02-26 22:06:00,26.4,12.0,30.09,SW,229,4.0,4.0,54,0.00,CLR,CLR,0.00,WeatherDisplay:10.34,2013-02-27 05:06:00,
2013-02-26 22:11:00,26.1,10.9,30.09,SW,229,3.0,3.0,52,0.00,CLR,CLR,0.00,WeatherDisplay:10.34,2013-02-27 05:11:00,
2013-02-26 22:14:00,25.9,10.7,30.09,SW,229,3.0,3.0,52,0.00,CLR,CLR,0.00,WeatherDisplay:10.34,2013-02-27 05:14:00,
2013-02-26 22:19:00,25.5,10.7,30.09,SW,229,6.0,7.0,53,0.00,CLR,CLR,0.00,WeatherDisplay:10.34,2013-02-27 05:19:00,
2013-02-26 22:24:00,25.1,10.8,30.10,SW,229,5.0,7.0,54,0.00,CLR,CLR,0.00,WeatherDisplay:10.34,2013-02-27 05:24:00,
2013-02-26 22:29:00,24.7,10.8,30.10,SW,229,5.0,5.0,55,0.00,CLR,CLR,0.00,WeatherDisplay:10.34,2013-02-27 05:29:00,
2013-02-26 22:34:00,24.4,10.9,30.10,SW,229,5.0,5.0,56,0.00,CLR,CLR,0.00,WeatherDisplay:10.34,2013-02-27 05:34:00,
2013-02-26 22:39:00,24.3,11.2,30.10,SW,229,6.0,6.0,57,0.00,CLR,CLR,0.00,WeatherDisplay:10.34,2013-02-27 05:39:00,
2013-02-26 22:44:00,24.3,11.2,30.10,SW,229,3.0,3.0,57,0.00,CLR,CLR,0.00,WeatherDisplay:10.34,2013-02-27 05:44:00,
2013-02-26 22:49:00,24.2,11.5,30.10,SW,229,3.0,3.0,58,0.00,CLR,CLR,0.00,WeatherDisplay:10.34,2013-02-27 05:49:00,
2013-02-26 22:54:00,24.2,11.1,30.10,SW,229,5.0,5.0,57,0.00,CLR,CLR,0.00,WeatherDisplay:10.34,2013-02-27 05:54:00,
2013-02-26 22:59:00,24.0,11.0,30.11,SW,229,6.0,7.0,57,0.00,CLR,CLR,0.00,WeatherDisplay:10.34,2013-02-27 05:59:00,
2013-02-26 23:05:00,23.8,10.8,30.11,SW,236,2.0,2.0,57,0.00,CLR,CLR,0.00,WeatherDisplay:10.34,2013-02-27 06:05:00,
2013-02-26 23:10:00,23.6,10.6,30.11,SW,233,5.0,0.0,57,0.00,CLR,CLR,0.00,WeatherDisplay:10.34,2013-02-27 06:10:00,
2013-02-26 23:15:00,23.4,10.0,30.11,SW,233,6.0,6.0,56,0.00,CLR,CLR,0.00,WeatherDisplay:10.34,2013-02-27 06:15:00,
2013-02-26 23:20:00,23.2,9.8,30.11,SW,234,4.0,0.0,56,0.00,CLR,CLR,0.00,WeatherDisplay:10.34,2013-02-27 06:20:00,
2013-02-26 23:25:00,23.0,9.6,30.11,SW,234,2.0,2.0,56,0.00,CLR,CLR,0.00,WeatherDisplay:10.34,2013-02-27 06:25:00,
2013-02-26 23:30:00,22.7,9.7,30.11,SW,233,1.0,1.0,57,0.00,CLR,CLR,0.00,WeatherDisplay:10.34,2013-02-27 06:30:00,
2013-02-26 23:35:00,22.4,9.4,30.12,SW,234,1.0,1.0,57,0.00,CLR,CLR,0.00,WeatherDisplay:10.34,2013-02-27 06:35:00,
2013-02-26 23:40:00,22.3,9.4,30.12,SW,233,0.0,0.0,57,0.00,CLR,CLR,0.00,WeatherDisplay:10.34,2013-02-27 06:40:00,
2013-02-26 23:45:00,22.1,9.2,30.12,SW,234,0.0,0.0,57,0.00,CLR,CLR,0.00,WeatherDisplay:10.34,2013-02-27 06:45:00,
2013-02-26 23:50:00,21.8,8.5,30.12,SW,234,2.0,2.0,56,0.00,CLR,CLR,0.00,WeatherDisplay:10.34,2013-02-27 06:50:00,
2013-02-26 23:55:00,21.4,8.1,30.12,SW,234,3.0,3.0,56,0.00,CLR,CLR,0.00,WeatherDisplay:10.34,2013-02-27 06:55:00,